Regional Weather Roundup
Issued by NWS

Home | Current Version | Previous Version | Graphics & Text | Print | Product List | Glossary On
Versions: 1 2 3 4 5 6 7 8 9 10 11 12 13 14 15 16 17 18 19 20 21 22 23 24 25 26 27
000
ASUS45 KCYS 290510
RWRWY

WYOMING REGIONAL WEATHER ROUNDUP
NATIONAL WEATHER SERVICE CHEYENNE WY
1100 PM MDT SUN AUG 28 2016

NOTE:  "FAIR" INDICATES FEW OR NO CLOUDS BELOW 12,000 FEET
WITH NO SIGNIFICANT WEATHER AND/OR OBSTRUCTIONS TO VISIBILITY.

WYZ001-290600-
YELLOWSTONE NATIONAL PARK

CITY           SKY/WX    TMP DP  RH WIND       PRES   REMARKS
LK YELLOWSTONE   N/A     47  34  60 CALM      30.45R
W YELLOWSTONE  NOT AVBL

$$
WYZ002>013-054>058-071-098>099-290600-
NORTHERN WYOMING

CITY           SKY/WX    TMP DP  RH WIND       PRES   REMARKS
JACKSON        FAIR      50  32  50 N5        30.34R
CODY           FAIR      70  34  26 NW3       30.24R
GREYBULL       FAIR      70  37  29 E3        30.11R
WORLAND        FAIR      63  40  42 VRB3      30.13R
SHERIDAN       FAIR      64  47  53 E3        30.16R
BUFFALO        FAIR      68  32  26 W10       30.23R
GILLETTE       FAIR      55  39  54 CALM      30.16R
HULETT         FAIR      72  37  28 CALM      30.17R
NEWCASTLE      FAIR      75  36  23 E13       30.13R

$$
WYZ014>020-022>026-101>103-290600-
CENTRAL WYOMING

CITY           SKY/WX    TMP DP  RH WIND       PRES   REMARKS
BIG PINEY      FAIR      53  29  39 N10       30.36R
PINEDALE       FAIR      48  32  53 NW8       30.37S
DUBOIS         FAIR      57  27  30 NW10      30.38R
LANDER         FAIR      69  31  24 W13       30.21S
RIVERTON       FAIR      67  28  23 W5        30.21S
CASPER         FAIR      55  42  61 N3        30.21R
DOUGLAS        FAIR      62  36  37 CALM      30.19R

$$
WYZ021-027>030-104>119-290600-
SOUTHERN WYOMING

CITY           SKY/WX    TMP DP  RH WIND       PRES   REMARKS
EVANSTON       FAIR      65  28  24 CALM      30.37S
FORT BRIDGER   FAIR      62  28  28 W8        30.38S
ROCK SPRINGS   FAIR      64  22  20 S3        30.31R
DIXON          FAIR      55  31  39 NE6       30.34R
RAWLINS        FAIR      57  20  23 E8        30.31R
SARATOGA       FAIR      61  36  39 SE16G25   30.35R
LARAMIE        FAIR      58  42  55 S12       30.35S
CHEYENNE       FAIR      63  47  55 SW13      30.29F
TORRINGTON     FAIR      62  45  53 NE8       30.16R
PINE BLUFFS    FAIR      63  46  55 SW8       30.23F

$$




USA.gov is the U.S. government's official web portal to all federal, state and local government web resources and services.